Content
SEND FEEDBACK

Daily
Averages
Monthly
Summary
South Korea

SOKCH'O, SOUTH KOREA


Home > Asia > South Korea
Elevation: 27 meters     Latitude: 38 12N     Longitude: 128 36E

WEATHER
 
SELECT A DAY
Number of Records: 107,205;   Date Range: 2/28/02 - 8/28/14
 
SHARE

PRINT THIS DATA

[ ← Previous Day ]
WEATHER ALMANAC - 31 JANUARY, 2013
[ Next Day → ]
[ °F ]   °C
Weather ElementAverageHighLow
Temperature4.2 °C8 °C (3:00 pm)0 °C (7:00 am)
Dewpoint1.6 °C4 °C (2:00 pm)0 °C (7:00 am)
Humidity84.2 %100 % (1:00 am)66 % (10:00 pm)
Barometer1029.1 hPa1031.2 hPa (8:00 am)1026.1 hPa (11:00 pm)
Wind Speed7.6 km/h11.1 km/h (2:00 pm)
Weather ElementAverage
Visibility3.9 km
Wind DirectionSSW (189.1 °)

Weather ElementTotal
Precipitation---
Heating Degree Days14.3 (Base 18.3)
Averaged from 23 records on 31 January, 2013
WEATHER CONDITIONS BREAKOUT
WIND DIRECTION BREAKOUT
WEATHER BY HOUR - 31 JANUARY, 2013
[ °F ]   °C
Local TimeTemperatureDewpointHumidityBarometerVisibilityWind DirectionWind SpeedGust SpeedPrecipitationEventsConditions
1:00 AM1 °C1 °C100 %1030.1 hPa2.3 kmWSW (240°)7.4 km/h
2:00 AM1 °C1 °C100 %1030.1 hPa2.3 kmWSW (240°)9.3 km/h
3:00 AM2 °C1 °C93 %1030.1 hPa2.1 kmWest (270°)5.6 km/h
4:00 AM2 °C1 °C93 %1030.1 hPa2.4 kmWSW (250°)7.4 km/h
5:00 AM1 °C1 °C100 %1030.1 hPa1.3 kmWSW (240°)9.3 km/h
6:00 AM1 °C1 °C100 %1030.1 hPa1.4 kmSW (220°)9.3 km/h
7:00 AM0 °C0 °C100 %1030.1 hPa1.4 kmSSW (210°)5.6 km/h
8:00 AM0 °C0 °C100 %1031.2 hPa2.6 kmSouth (190°)7.4 km/hScattered Clouds
9:00 AM2 °C1 °C93 %1031.2 hPa3.1 kmSouth (180°)7.4 km/hPartly Cloudy
10:00 AM5 °C1 °C76 %1030.1 hPa6 kmSSE (160°)5.6 km/h
11:00 AM5 °C2 °C81 %1030.1 hPa6 kmEast (100°)5.6 km/h
12:00 PM7 °C3 °C76 %1030.1 hPa6 kmESE (110°)3.7 km/h
1:00 PM7 °C3 °C76 %1029.1 hPa6 kmESE (120°)7.4 km/h
2:00 PM7 °C4 °C81 %1028.1 hPa6 kmESE (120°)11.1 km/h
3:00 PM8 °C4 °C76 %1028.1 hPa6 kmSE (130°)9.3 km/h
4:00 PM8 °C4 °C76 %1028.1 hPa6 kmSE (130°)7.4 km/h
5:00 PM7 °C4 °C81 %1028.1 hPa5 kmSE (130°)7.4 km/hMist
6:00 PM6 °C3 °C81 %1028.1 hPa5 kmSouth (180°)7.4 km/hMist
7:00 PM5 °C1 °C76 %1028.1 hPa5 kmSW (230°)11.1 km/hMist
8:00 PM5 °C1 °C76 %1028.1 hPa3.1 kmSSW (210°)3.7 km/h
9:00 PM5 °C0 °C70 %1028.1 hPa3.1 kmSSW (200°)11.1 km/h
10:00 PM6 °C0 °C66 %1027.1 hPa3.1 kmSW (230°)3.7 km/h
11:00 PM6 °C0 °C66 %1026.1 hPa3.1 kmWest (260°)9.3 km/h
Hourly data recorded from RKNY, located 0 kilometers away from Sokch'o, South Korea







STORIES FROM OUR PARTNERS